Weather History for Erie, PA

Change the Weather History Date:

Wednesday, April 23, 2014

  Actual Average Record
Temperature  
Mean Temperature 41 °F 50 °F  
Max Temperature 45 °F 59 °F 84 °F (1885)
Min Temperature 36 °F 41 °F 27 °F (1930)
Degree Days  
Heating Degree Days 24 15  
Month to date heating degree days 420 444  
Since 1 July heating degree days 6380 5720  
Cooling Degree Days 0 0  
Month to date cooling degree days 0 0  
Year to date cooling degree days 0 1  
Moisture  
Dew Point 31 °F    
Average Humidity 65    
Maximum Humidity 85    
Minimum Humidity 45    
Precipitation  
Precipitation 0.00 in 0.11 in 1.97 in (1977)
Month to date precipitation 2.66 2.61  
Year to date precipitation 11.74 10.90  
Snow  
Snow 0.00 in 0.00 in - ()
Month to date snowfall 1.2 3.1  
Since 1 July snowfall 138.4 100.8  
Snow Depth 0.00 in    
Sea Level Pressure  
Sea Level Pressure 29.97 in    
Wind  
Wind Speed 11 mph (West)    
Max Wind Speed 21 mph    
Max Gust Speed 29 mph    
Visibility 10 miles    
Events      
T = Trace of Precipitation, MM = Missing Value Source: NWS Daily Summary

Daily Weather History Graph

Daily Weather History Graph

Search for Another Location

Airport:

Trip Planner

Search our weather history database for the weather conditions in past years. The results will help you decide how hot, cold, wet, or windy it might be!

Date:

Astronomy

Apr. 23, 2014 Rise Set
Actual Time 6:27 AM EDT 8:10 PM EDT
Civil Twilight 5:58 AM EDT 8:40 PM EDT
Nautical Twilight 5:22 AM EDT 9:16 PM EDT
Astronomical Twilight 4:43 AM EDT 9:55 PM EDT
Moon 3:04 AM EDT (4/23) 2:11 PM EDT (4/23)
Length of Visible Light 14h 42m
Length of Day
13h 43m
Waning Crescent, 35% of the Moon is Illuminated
Apr 23
Waning Crescent
Apr 29
New
May 6
First Quarter
May 14
Full
May 21
Last Quarter

Hourly Weather History & Observations

Time (EDT) Temp. Windchill Dew Point Humidity Pressure Visibility Wind Dir Wind Speed Gust Speed Precip Events Conditions
12:27 AM 37.4 °F 30.3 °F 35.6 °F 93% 29.84 in 10.0 mi West 10.4 mph - 0.00 in   Overcast
12:34 AM 37.4 °F 29.8 °F 35.6 °F 93% 29.84 in 10.0 mi West 11.5 mph 18.4 mph 0.00 in   Overcast
12:41 AM 37.4 °F 29.8 °F 35.6 °F 93% 29.84 in 10.0 mi West 11.5 mph - 0.00 in   Overcast
12:51 AM 37.9 °F 30.0 °F 35.1 °F 89% 29.86 in 10.0 mi West 12.7 mph - 0.00 in   Overcast
1:51 AM 37.9 °F 31.5 °F 34.0 °F 86% 29.86 in 10.0 mi West 9.2 mph - N/A   Overcast
2:51 AM 37.9 °F 30.5 °F 33.1 °F 83% 29.85 in 10.0 mi West 11.5 mph - N/A   Overcast
3:30 AM 37.4 °F 29.8 °F 33.8 °F 87% 29.84 in 10.0 mi West 11.5 mph 18.4 mph N/A   Overcast
3:51 AM 37.0 °F 29.3 °F 33.1 °F 86% 29.86 in 10.0 mi West 11.5 mph 20.7 mph N/A   Overcast
4:51 AM 37.0 °F 29.8 °F 33.1 °F 86% 29.87 in 10.0 mi West 10.4 mph 19.6 mph N/A   Overcast
5:51 AM 37.0 °F 28.9 °F 33.1 °F 86% 29.90 in 10.0 mi West 12.7 mph 18.4 mph N/A   Overcast
6:51 AM 37.0 °F 30.4 °F 32.0 °F 82% 29.92 in 10.0 mi WNW 9.2 mph - N/A   Overcast
7:20 AM 37.4 °F 29.8 °F 32.0 °F 81% 29.92 in 10.0 mi West 11.5 mph - N/A   Overcast
7:51 AM 37.4 °F 30.8 °F 32.0 °F 81% 29.93 in 10.0 mi West 9.2 mph - N/A   Overcast
8:51 AM 37.0 °F 30.4 °F 32.0 °F 82% 29.97 in 10.0 mi West 9.2 mph - N/A   Overcast
9:51 AM 37.0 °F 29.8 °F 32.0 °F 82% 29.99 in 10.0 mi WNW 10.4 mph - N/A   Overcast
10:51 AM 37.0 °F 29.3 °F 30.9 °F 79% 30.01 in 10.0 mi West 11.5 mph 17.3 mph N/A   Overcast
11:51 AM 37.9 °F 30.0 °F 30.9 °F 76% 30.02 in 10.0 mi West 12.7 mph - N/A   Overcast
12:51 PM 42.1 °F 34.5 °F 32.0 °F 67% 30.03 in 10.0 mi West 15.0 mph 20.7 mph N/A   Partly Cloudy
1:51 PM 44.1 °F 37.4 °F 30.9 °F 60% 30.03 in 10.0 mi West 13.8 mph 25.3 mph 0.01 in   Mostly Cloudy
2:51 PM 44.1 °F 36.8 °F 30.0 °F 58% 30.03 in 10.0 mi West 16.1 mph 28.8 mph N/A   Partly Cloudy
3:51 PM 44.6 °F 38.1 °F 28.4 °F 53% 30.02 in 10.0 mi West 13.8 mph 25.3 mph N/A   Clear
4:51 PM 45.0 °F 38.5 °F 27.0 °F 49% 30.04 in 10.0 mi West 13.8 mph 23.0 mph N/A   Clear
5:51 PM 44.1 °F 37.7 °F 27.0 °F 51% 30.05 in 10.0 mi West 12.7 mph 20.7 mph N/A   Clear
6:51 PM 43.0 °F 36.8 °F 27.0 °F 53% 30.06 in 10.0 mi West 11.5 mph 17.3 mph N/A   Clear
7:51 PM 41.0 °F 35.2 °F 26.1 °F 55% 30.07 in 10.0 mi West 9.2 mph 21.9 mph N/A   Clear
8:51 PM 41.0 °F 33.5 °F 21.9 °F 47% 30.08 in 10.0 mi WNW 13.8 mph - N/A   Clear
9:51 PM 39.0 °F 32.3 °F 25.0 °F 57% 30.11 in 10.0 mi West 10.4 mph 16.1 mph N/A   Clear
10:51 PM 37.9 °F 30.9 °F 26.1 °F 62% 30.12 in 10.0 mi West 10.4 mph - N/A   Clear
11:51 PM 37.9 °F 32.1 °F 27.0 °F 65% 30.13 in 10.0 mi West 8.1 mph - N/A   Clear